Bookmark and Share
Track history (hours):
 

Louis Cristal

Last reported at 2014-Apr-23 23:26 UTC. Time now 2014-Apr-24 22:03 UTC.
Position N 39°52' E 023°39'.

Length 162 m; draft 6 m.

Type: Passenger vessel. MMSI: 229001000.

NotesDate/timePositionNaut miles runAvg speedWind from/ knotsBaromVisibWave heightAir tempDewpointWater temp
2014-Apr-23 23:26N 39°52' E 023°39'1515.9
2014-Apr-23 22:29N 39°55' E 023°58'1415.6
2014-Apr-23 21:33N 40°01' E 024°15'1414.3
2014-Apr-23 20:33N 40°12' E 024°27'1615.9
2014-Apr-23 19:33N 40°28' E 024°25'1615.5
2014-Apr-23 18:33N 40°44' E 024°24'1211.8
2014-Apr-23 17:31N 40°56' E 024°25'0 0.0
2014-Apr-23 16:31N 40°56' E 024°25'0 0.0
2014-Apr-23 15:31N 40°56' E 024°25'0 0.0
2014-Apr-23 14:31N 40°56' E 024°25'0 0.0
2014-Apr-23 13:31N 40°56' E 024°25'0 0.0
2014-Apr-23 12:31N 40°56' E 024°25'0 0.0
2014-Apr-23 11:31N 40°56' E 024°25'0 0.0
2014-Apr-23 10:31N 40°56' E 024°25'0 0.0
2014-Apr-23 09:31N 40°56' E 024°25'0 0.0
2014-Apr-23 08:31N 40°56' E 024°25'7 7.7
2014-Apr-23 07:34N 40°52' E 024°33'1514.8
2014-Apr-23 06:34N 40°45' E 024°50'1514.8
2014-Apr-23 05:34N 40°34' E 025°03'1515.0
2014-Apr-23 04:34N 40°23' E 025°17'1715.5
2014-Apr-23 03:27N 40°11' E 025°32'62 2.0
2014-Apr-21 20:30N 40°28' E 026°51'1413.7
2014-Apr-21 19:27N 40°19' E 026°36'1414.0
2014-Apr-21 18:28N 40°09' E 026°23'2312.1
2014-Apr-21 16:33N 39°57' E 025°58'  
2014-Apr-19 00:29N 37°42' E 026°05'1817.6
2014-Apr-18 23:27N 37°37' E 025°43'1617.8
2014-Apr-18 22:33N 37°32' E 025°24'1817.4
2014-Apr-18 21:33N 37°27' E 025°03'5 4.9
2014-Apr-18 20:33N 37°26' E 024°57'0 0.0
2014-Apr-18 19:33N 37°26' E 024°57'0 0.0
2014-Apr-18 18:33N 37°26' E 024°57'0 0.0
2014-Apr-18 17:33N 37°26' E 024°57'0 0.0
2014-Apr-18 16:33N 37°26' E 024°57'0 0.1
2014-Apr-18 15:34N 37°26' E 024°57'9 8.6
2014-Apr-18 14:33N 37°32' E 024°48'1515.0
2014-Apr-18 13:31N 37°31' E 024°29'21 0.6
2014-Apr-17 03:33N 37°35' E 024°03'46113.5
2014-Apr-15 17:29N 36°30' E 014°32'1313.6
2014-Apr-15 16:33N 36°30' E 014°16'1413.5
2014-Apr-15 15:33N 36°32' E 013°59'14014.1
2014-Apr-15 05:33N 37°20' E 011°14'35917.9
2014-Apr-14 09:32N 37°05' E 003°44'1717.4
2014-Apr-14 08:34N 37°02' E 003°23'1817.8
2014-Apr-14 07:32N 36°59' E 003°00'1717.9
2014-Apr-14 06:33N 36°57' E 002°39'  

Dump ship's entire track history

sailing weather and tide predictions

Louis Cristal — 9HA2978 — position and weather